Hourly Weather Masow

Today, 9 May, Sunday

Time Temperature Precipitation Wind Pressure Humidity
00:00 +4°C° 0 mm 3 mps 749 mmHg 76%
01:00 +4°C° 0 mm 3 mps 749 mmHg 76%
02:00 +4°C° 0 mm 3 mps 749 mmHg 75%
03:00 +4°C° 0 mm 4 mps 749 mmHg 74%
04:00 +4°C° 0 mm 4 mps 748 mmHg 73%
05:00 +6°C° 0 mm 4 mps 748 mmHg 70%
06:00 +7°C° 0 mm 5 mps 748 mmHg 67%
07:00 +9°C° 0 mm 5 mps 748 mmHg 64%
08:00 +12°C° 0 mm 5 mps 748 mmHg 59%
09:00 +14°C° 0 mm 6 mps 748 mmHg 55%
10:00 +16°C° 0 mm 6 mps 748 mmHg 51%
11:00 +17°C° 0 mm 6 mps 747 mmHg 50%
12:00 +19°C° 0 mm 6 mps 747 mmHg 50%
13:00 +20°C° 0 mm 6 mps 747 mmHg 49%
14:00 +20°C° 0 mm 6 mps 747 mmHg 51%
15:00 +20°C° 0 mm 6 mps 747 mmHg 53%
16:00 +20°C° 0 mm 6 mps 746 mmHg 56%
17:00 +19°C° 0 mm 6 mps 746 mmHg 58%
18:00 +16°C° 0 mm 6 mps 746 mmHg 61%
19:00 +14°C° 0 mm 6 mps 746 mmHg 63%
20:00 +14°C° 0 mm 6 mps 746 mmHg 61%
21:00 +13°C° 0 mm 6 mps 746 mmHg 60%
22:00 +13°C° 0 mm 6 mps 746 mmHg 58%
23:00 +11°C° 0 mm 6 mps 746 mmHg 60%

Tomorrow, 10 May, Monday

Time Temperature Precipitation Wind Pressure Humidity
00:00 +10°C° 0 mm 5 mps 746 mmHg 63%
01:00 +10°C° 0 mm 5 mps 746 mmHg 65%
02:00 +9°C° 0 mm 5 mps 746 mmHg 67%
03:00 +9°C° 0 mm 5 mps 745 mmHg 68%
04:00 +8°C° 0 mm 4 mps 745 mmHg 70%
05:00 +10°C° 0 mm 5 mps 745 mmHg 67%
06:00 +12°C° 0 mm 5 mps 745 mmHg 64%
07:00 +14°C° 0 mm 5 mps 745 mmHg 60%
08:00 +16°C° 0 mm 6 mps 745 mmHg 56%
09:00 +19°C° 0 mm 6 mps 745 mmHg 51%
10:00 +21°C° 0 mm 7 mps 745 mmHg 47%
11:00 +22°C° 0 mm 7 mps 744 mmHg 48%
12:00 +23°C° 0 mm 7 mps 744 mmHg 49%
13:00 +24°C° 0 mm 8 mps 744 mmHg 49%
14:00 +23°C° 0 mm 7 mps 744 mmHg 53%
15:00 +23°C° 0 mm 7 mps 745 mmHg 56%
16:00 +22°C° 0 mm 7 mps 745 mmHg 59%
17:00 +21°C° 0 mm 6 mps 745 mmHg 63%
18:00 +20°C° 0 mm 5 mps 745 mmHg 67%
19:00 +18°C° 0 mm 4 mps 745 mmHg 71%
20:00 +17°C° 0 mm 4 mps 745 mmHg 73%
21:00 +17°C° 0 mm 4 mps 745 mmHg 76%
22:00 +16°C° 0 mm 3 mps 745 mmHg 78%
23:00 +14°C° 0 mm 3 mps 744 mmHg 78%

Day after tomorrow, 11 May, Tuesday

Time Temperature Precipitation Wind Pressure Humidity
00:00 +14°C° 0 mm 3 mps 744 mmHg 79%
01:00 +13°C° 0 mm 4 mps 744 mmHg 79%
02:00 +13°C° 0 mm 4 mps 743 mmHg 78%
03:00 +13°C° 0 mm 4 mps 743 mmHg 77%
04:00 +13°C° 0 mm 5 mps 742 mmHg 76%
05:00 +15°C° 0 mm 5 mps 742 mmHg 73%
06:00 +16°C° 0 mm 5 mps 742 mmHg 70%
07:00 +19°C° 0 mm 5 mps 742 mmHg 67%
08:00 +21°C° 0 mm 6 mps 742 mmHg 62%
09:00 +22°C° 0 mm 7 mps 742 mmHg 57%
10:00 +24°C° 0 mm 7 mps 742 mmHg 51%
11:00 +26°C° 0 mm 7 mps 742 mmHg 50%
12:00 +26°C° 0 mm 7 mps 742 mmHg 49%
13:00 +27°C° 0 mm 7 mps 742 mmHg 47%
14:00 +27°C° 0 mm 7 mps 742 mmHg 49%
15:00 +27°C° 0 mm 6 mps 741 mmHg 50%
16:00 +26°C° 0 mm 5 mps 741 mmHg 52%
17:00 +25°C° 0 mm 4 mps 741 mmHg 59%
18:00 +22°C° 0 mm 3 mps 741 mmHg 65%
19:00 +20°C° 0 mm 2 mps 740 mmHg 72%
20:00 +19°C° 0 mm 3 mps 741 mmHg 74%
21:00 +18°C° 0 mm 3 mps 741 mmHg 76%
22:00 +17°C° 0 mm 3 mps 741 mmHg 78%
23:00 +17°C° 0 mm 3 mps 741 mmHg 81%

12 May, Wednesday

Time Temperature Precipitation Wind Pressure Humidity
00:00 +16°C° 0 mm 3 mps 740 mmHg 84%
01:00 +14°C° 0 mm 3 mps 740 mmHg 87%
02:00 +14°C° 0 mm 3 mps 740 mmHg 89%
03:00 +13°C° 0 mm 3 mps 740 mmHg 91%
04:00 +13°C° 0 mm 3 mps 740 mmHg 92%
05:00 +14°C° 0 mm 3 mps 740 mmHg 87%
06:00 +17°C° 0 mm 3 mps 739 mmHg 81%
07:00 +18°C° 0 mm 3 mps 739 mmHg 75%
08:00 +20°C° 0 mm 3 mps 739 mmHg 69%
09:00 +22°C° 0 mm 3 mps 739 mmHg 62%
10:00 +24°C° 0 mm 3 mps 739 mmHg 55%
11:00 +25°C° 0 mm 3 mps 739 mmHg 53%
12:00 +26°C° 0 mm 3 mps 739 mmHg 50%
13:00 +26°C° 0 mm 3 mps 738 mmHg 48%
14:00 +26°C° 0 mm 3 mps 738 mmHg 52%
15:00 +25°C° 0 mm 4 mps 738 mmHg 57%
16:00 +23°C° 0 mm 5 mps 738 mmHg 62%
17:00 +21°C° 0 mm 5 mps 738 mmHg 64%
18:00 +20°C° 0 mm 6 mps 738 mmHg 65%
19:00 +19°C° 0 mm 6 mps 738 mmHg 67%
20:00 +16°C° 0 mm 5 mps 738 mmHg 68%
21:00 +15°C° 0 mm 4 mps 738 mmHg 70%
22:00 +14°C° 0 mm 3 mps 738 mmHg 72%
23:00 +13°C° 0 mm 3 mps 738 mmHg 75%

13 May, Thursday

Time Temperature Precipitation Wind Pressure Humidity
00:00 +12°C° 0 mm 3 mps 738 mmHg 78%
01:00 +11°C° 0 mm 3 mps 738 mmHg 81%
02:00 +11°C° 0 mm 3 mps 738 mmHg 83%
03:00 +10°C° 0 mm 3 mps 738 mmHg 84%
04:00 +9°C° 0 mm 3 mps 738 mmHg 85%
05:00 +10°C° 0 mm 3 mps 738 mmHg 80%
06:00 +11°C° 0 mm 4 mps 738 mmHg 75%
07:00 +12°C° 0 mm 4 mps 738 mmHg 70%
08:00 +14°C° 0 mm 4 mps 738 mmHg 65%
09:00 +15°C° 0 mm 4 mps 738 mmHg 61%
10:00 +17°C° 0 mm 4 mps 738 mmHg 56%
11:00 +17°C° 0 mm 4 mps 738 mmHg 55%
12:00 +18°C° 0 mm 4 mps 738 mmHg 55%
13:00 +18°C° 0 mm 4 mps 738 mmHg 54%
14:00 +17°C° 0.1 mm 3 mps 738 mmHg 59%
15:00 +16°C° 0.1 mm 3 mps 738 mmHg 64%
16:00 +14°C° 0.1 mm 3 mps 738 mmHg 69%
17:00 +15°C° 0 mm 2 mps 738 mmHg 71%
18:00 +14°C° 0 mm 2 mps 738 mmHg 73%
19:00 +14°C° 0 mm 1 mps 739 mmHg 75%
20:00 +13°C° 0 mm 1 mps 739 mmHg 78%
21:00 +12°C° 0 mm 1 mps 739 mmHg 80%
22:00 +11°C° 0 mm 1 mps 739 mmHg 83%
23:00 +11°C° 0 mm 1 mps 739 mmHg 83%

14 May, Friday

Time Temperature Precipitation Wind Pressure Humidity
00:00 +11°C° 0 mm 1 mps 739 mmHg 84%
01:00 +11°C° 0 mm 1 mps 739 mmHg 84%
02:00 +11°C° 0 mm 1 mps 739 mmHg 86%
03:00 +11°C° 0 mm 1 mps 739 mmHg 87%
04:00 +11°C° 0 mm 1 mps 739 mmHg 89%
05:00 +11°C° 0.1 mm 1 mps 739 mmHg 87%
06:00 +12°C° 0.1 mm 1 mps 740 mmHg 86%
07:00 +12°C° 0.1 mm 1 mps 740 mmHg 84%
08:00 +14°C° 0.2 mm 1 mps 740 mmHg 78%
09:00 +15°C° 0.2 mm 1 mps 740 mmHg 72%
10:00 +16°C° 0.2 mm 2 mps 740 mmHg 66%
11:00 +16°C° 0.4 mm 2 mps 740 mmHg 65%
12:00 +17°C° 0.4 mm 2 mps 740 mmHg 65%
13:00 +17°C° 0.4 mm 2 mps 740 mmHg 64%
14:00 +16°C° 0.5 mm 2 mps 741 mmHg 69%
15:00 +16°C° 0.5 mm 3 mps 741 mmHg 74%
16:00 +14°C° 0.5 mm 3 mps 741 mmHg 80%
17:00 +13°C° 0.4 mm 3 mps 741 mmHg 83%
18:00 +13°C° 0.4 mm 3 mps 741 mmHg 87%
19:00 +12°C° 0.4 mm 3 mps 742 mmHg 90%
20:00 +11°C° 0 mm 3 mps 742 mmHg 92%
21:00 +10°C° 0 mm 2 mps 742 mmHg 93%
22:00 +10°C° 0 mm 2 mps 743 mmHg 95%
23:00 +10°C° 0 mm 2 mps 743 mmHg 94%
Show more